This is the latest recevied weather packets stored in our database for station/object K5WNG. If no packets are shown the sender has not sent any weather packets the latest 10 day(s).
| Time | Temp. | Humidity | Pressure | Rain* | Wind** | Luminosity | Snow |
|---|---|---|---|---|---|---|---|
| 1777898119 | 15.56° C | 85% | 1014.5 hPa | 0 mm | - | 55 W/m² | - |
| 1777897818 | 15° C | 86% | 1014.5 hPa | 0 mm | - | 45 W/m² | - |
| 1777897515 | 15° C | 86% | 1014.5 hPa | 0 mm | - | 36 W/m² | - |
| 1777897215 | 15° C | 86% | 1014.4 hPa | 0 mm | - | 29 W/m² | - |
| 1777896916 | 15° C | 86% | 1014.3 hPa | 0 mm | - | 21 W/m² | - |
| 1777896616 | 15° C | 86% | 1014.1 hPa | 0 mm | - | 17 W/m² | - |
| 1777896321 | 15° C | 86% | 1014 hPa | 0 mm | - | 11 W/m² | - |
| 1777896019 | 15° C | 86% | 1013.9 hPa | 0 mm | - | 9 W/m² | - |
| 1777895716 | 15° C | 86% | 1013.9 hPa | 0 mm | - | 6 W/m² | - |
| 1777895419 | 15° C | 87% | 1013.9 hPa | 0 mm | - | 3 W/m² | - |
| 1777894820 | 15° C | 86% | 1013.9 hPa | 0 mm | - | 1 W/m² | - |
| 1777894516 | 15° C | 86% | 1014 hPa | 0 mm | - | 0 W/m² | - |
| 1777894221 | 15° C | 86% | 1014.1 hPa | 0 mm | - | 0 W/m² | - |
| 1777893916 | 15° C | 86% | 1014.1 hPa | 0 mm | - | 0 W/m² | - |
| 1777893617 | 15° C | 86% | 1014.1 hPa | 0 mm | - | 0 W/m² | - |
| 1777893316 | 15° C | 86% | 1014.1 hPa | 0 mm | - | 0 W/m² | - |
| 1777893019 | 15° C | 86% | 1014.2 hPa | 0 mm | - | 0 W/m² | - |
| 1777892716 | 15° C | 86% | 1014.4 hPa | 0 mm | - | 0 W/m² | - |
| 1777892417 | 15° C | 85% | 1014.4 hPa | 0 mm | - | 0 W/m² | - |
| 1777892116 | 15° C | 85% | 1014.3 hPa | 0 mm | - | 0 W/m² | - |
| 1777890620 | 15° C | 84% | 1014.7 hPa | 0 mm | - | 0 W/m² | - |
| 1777890316 | 15.56° C | 84% | 1014.7 hPa | 0 mm | - | 0 W/m² | - |
| 1777890017 | 15.56° C | 83% | 1014.7 hPa | 0 mm | - | 0 W/m² | - |
| 1777889717 | 15.56° C | 83% | 1014.6 hPa | 0 mm | - | 0 W/m² | - |
| 1777889417 | 15.56° C | 83% | 1014.5 hPa | 0 mm | - | 0 W/m² | - |
* Rain latest hour (hover to see other rain measurements)
** Current wind speed in m/s (hover to see current wind gust speed)